DateTimeUTC,F1_A11,F1_S11,BsB_S11,BsG_S11,BsR_S11,BbsB_S11,BbsG_S11,BbsR_S11,BaB_A11,BaG_A11,BaR_A11,Tu_S11,T_S11,Uu_S11,U_S11,P_S11,T1_A11
2021-04-12T14:00:00Z,00000200,20000000,,,,,,,-000.12,-000.11,0000.08,18.3,25.0,03.6,02.4,0666.7,31.1
2021-04-12T14:01:00Z,00000200,20000000,,,,,,,-000.01,-000.39,-000.03,18.3,25.0,03.6,02.4,0666.7,31.1
2021-04-12T14:02:00Z,00000200,20000000,,,,,,,-000.10,0000.23,-000.08,18.3,25.0,03.6,02.4,0666.7,31.1
2021-04-12T14:03:00Z,00000200,60000000,,,,,,,0000.52,0000.35,0000.46,18.3,25.0,03.6,02.4,0666.7,31.1
2021-04-12T14:04:00Z,00000200,40000000,0001.36,0001.24,0000.71,-000.08,0000.34,0000.20,0000.49,0000.44,0000.32,18.4,24.9,03.6,02.4,0667.5,31.1
2021-04-12T14:05:00Z,00000200,00000000,0001.54,0001.19,0000.83,0000.87,0000.08,0000.42,0000.53,0000.38,0000.38,18.5,24.9,03.5,02.4,0667.8,31.1
2021-04-12T14:06:00Z,00000200,00000000,0001.66,0001.45,0000.87,0000.58,0000.13,0000.13,0000.84,0000.58,0000.42,18.5,24.9,03.5,02.4,0667.7,31.1
2021-04-12T14:07:00Z,00000200,00000000,0001.87,0001.42,0000.87,-000.22,0000.09,0000.39,0000.83,0000.08,-000.03,18.5,24.9,03.6,02.4,0667.7,31.1
2021-04-12T14:08:00Z,00000200,00000000,0001.95,0001.25,0000.89,0000.13,0000.23,0000.06,0000.08,0000.76,0000.88,18.6,24.9,03.5,02.4,0667.7,31.1
2021-04-12T14:09:00Z,00000200,00000000,0001.59,0001.61,0001.10,0000.41,0000.33,-000.01,0000.46,0000.89,0000.43,18.6,24.9,03.5,02.4,0667.6,31.1
2021-04-12T14:10:00Z,00000200,00000000,0001.45,0001.26,0001.06,0000.42,-000.22,0000.12,0001.05,0000.57,0000.32,18.6,25.0,03.4,02.3,0667.8,31.1
2021-04-12T14:11:00Z,00000200,00000000,0002.02,0001.19,0000.94,-000.02,0000.28,0000.30,0000.55,0000.51,0000.48,18.6,25.0,03.5,02.4,0667.6,31.1
2021-04-12T14:12:00Z,00000200,00000000,0001.31,0001.50,0000.99,0000.26,0000.47,0000.24,0000.69,0000.55,0000.17,18.6,25.0,03.5,02.3,0667.7,31.1
2021-04-12T14:13:00Z,00000200,00000000,0001.68,0001.48,0000.62,0000.11,0000.31,0000.18,0000.69,0000.89,0000.40,18.6,25.0,03.5,02.4,0667.7,31.1
2021-04-12T14:14:00Z,00000200,00000000,0002.08,0001.51,0001.16,0000.21,0000.42,0000.28,0000.82,0000.23,0000.62,18.7,25.0,03.4,02.3,0667.7,31.1
2021-04-12T14:15:00Z,00000200,00000000,0001.34,0001.58,0000.84,0000.45,0000.39,0000.11,0000.48,0000.89,0000.86,18.7,25.0,03.5,02.3,0667.8,31.1
2021-04-12T14:16:00Z,00000200,00000000,0001.87,0001.51,0000.73,0000.35,0000.06,0000.06,0000.75,0000.47,0000.24,18.7,25.0,03.5,02.3,0667.8,31.1
2021-04-12T14:17:00Z,00000200,00000000,0001.91,0001.38,0000.88,0000.24,0000.13,0000.08,0000.85,0000.92,0000.48,18.7,25.1,03.4,02.3,0667.7,31.1
2021-04-12T14:18:00Z,00000200,00000000,0001.84,0001.30,0000.85,0000.14,0000.22,0000.14,0001.07,0000.65,0000.75,18.7,25.0,03.4,02.3,0667.7,31.1
2021-04-12T14:19:00Z,00000200,00000000,0001.74,0001.20,0000.60,0000.44,0000.31,0000.07,0000.31,0000.61,0000.02,18.7,25.1,03.4,02.3,0667.7,31.1
2021-04-12T14:20:00Z,00000200,00000000,0001.80,0001.23,0000.85,0000.32,0000.30,0000.02,0000.95,0000.74,0001.09,18.7,25.1,03.5,02.4,0667.8,31.1
2021-04-12T14:21:00Z,00000200,00000000,0001.64,0001.49,0001.05,0000.14,0000.35,0000.30,0000.72,0001.00,0000.19,18.8,25.1,03.6,02.4,0667.8,31.1
2021-04-12T14:22:00Z,00000200,00000000,0001.02,0001.56,0000.80,0000.44,0000.13,0000.21,0001.09,0000.61,0000.62,18.8,25.1,03.6,02.5,0667.7,31.1
2021-04-12T14:23:00Z,00000200,00000000,0002.24,0001.48,0000.83,0000.51,0000.00,-000.06,0001.34,0001.26,0000.97,18.8,25.1,03.8,02.5,0667.6,31.1
2021-04-12T14:24:00Z,00000200,00000000,0002.30,0001.45,0001.03,0000.47,0000.15,-000.02,0000.38,0000.60,0000.47,18.8,25.1,03.8,02.6,0667.6,31.1
2021-04-12T14:25:00Z,00000200,00000000,0002.12,0001.36,0000.92,0000.71,0000.21,0000.01,0001.01,0000.36,0000.67,18.8,25.1,03.6,02.5,0667.5,31.1
2021-04-12T14:26:00Z,00000200,00000000,0001.74,0001.33,0001.04,-000.07,0000.30,0000.35,0000.85,0000.91,0000.41,18.8,25.1,03.7,02.5,0667.5,31.1
2021-04-12T14:27:00Z,00000200,00000000,0001.83,0001.45,0000.85,-000.04,0000.44,0000.02,0000.97,0001.17,0001.03,18.8,25.2,03.8,02.6,0667.5,31.1
2021-04-12T14:28:00Z,00000200,00000000,0002.01,0001.54,0000.68,-000.06,0000.19,0000.30,0000.91,0000.73,0000.50,18.8,25.2,03.8,02.6,0667.4,31.1
2021-04-12T14:29:00Z,00000200,00000000,0001.96,0001.46,0001.34,0000.36,0000.32,0000.34,0000.61,0000.69,0000.49,18.8,25.2,03.7,02.5,0667.5,31.1
2021-04-12T14:30:00Z,00000200,00000000,0001.61,0001.36,0000.99,-000.04,0000.21,0000.30,0001.09,0000.84,0000.62,18.9,25.2,03.8,02.6,0667.4,31.1
2021-04-12T14:31:00Z,00000200,00000000,0002.00,0001.40,0000.94,0000.11,0000.41,0000.42,0000.79,0000.69,0000.73,18.9,25.2,03.8,02.6,0667.4,31.1
2021-04-12T14:32:00Z,00000200,00000000,0001.86,0001.42,0000.82,0000.06,0000.52,0000.15,0000.99,0001.06,0000.65,18.9,25.2,03.8,02.6,0667.5,31.2
2021-04-12T14:33:00Z,00000200,00000000,0001.90,0001.48,0001.11,-000.28,0000.43,0000.39,0000.91,0000.63,0000.45,18.9,25.3,03.7,02.5,0667.5,31.1
2021-04-12T14:34:00Z,00000200,00000000,0001.60,0001.26,0000.92,0000.46,0000.26,0000.12,0000.15,0000.21,0000.32,18.9,25.3,03.7,02.5,0667.5,31.1
2021-04-12T14:35:00Z,00000200,00000000,0002.55,0001.33,0001.02,0000.66,0000.34,0000.10,0000.45,0000.92,0000.21,19.0,25.3,03.6,02.4,0667.5,31.1
2021-04-12T14:36:00Z,00000200,00000000,0001.83,0001.18,0001.08,-000.15,0000.35,0000.24,0001.03,0000.84,0000.84,19.0,25.3,03.7,02.5,0667.5,31.1
2021-04-12T14:37:00Z,00000200,00000000,0002.61,0001.56,0000.89,0000.36,0000.28,0000.15,0000.92,0000.40,0000.26,19.0,25.3,03.7,02.5,0667.5,31.2
2021-04-12T14:38:00Z,00000200,00000000,0001.94,0001.46,0000.79,0000.18,0000.11,0000.28,0000.69,0000.77,0000.57,19.0,25.3,03.6,02.4,0667.5,31.1
2021-04-12T14:39:00Z,00000200,00000000,0001.95,0001.37,0000.81,0000.25,0000.09,-000.17,0000.56,0000.38,0000.47,19.0,25.4,03.6,02.5,0667.4,31.1
2021-04-12T14:40:00Z,00000200,00000000,0001.87,0001.42,0000.78,0000.30,0000.13,0000.25,0000.59,0000.67,0000.58,19.0,25.4,03.6,02.5,0667.5,31.2
2021-04-12T14:41:00Z,00000200,00000000,0001.61,0001.68,0000.63,0000.34,0000.31,0000.26,0000.85,0000.68,0000.17,19.0,25.4,03.6,02.5,0667.4,31.2
2021-04-12T14:42:00Z,00000200,00000000,0001.98,0001.59,0000.56,0000.33,0000.27,-000.02,0001.01,0000.72,0000.80,19.1,25.4,03.5,02.4,0667.4,31.2
2021-04-12T14:43:00Z,00000200,00000000,0001.52,0001.33,0001.05,0000.39,-000.00,0000.17,0000.68,0000.36,0000.35,19.1,25.4,03.6,02.4,0667.5,31.2
2021-04-12T14:44:00Z,00000200,00000000,0001.83,0001.58,0000.96,0000.02,0000.31,0000.22,0000.56,0000.80,0000.77,19.1,25.4,03.6,02.5,0667.3,31.1
2021-04-12T14:45:00Z,00000200,00000000,0001.44,0001.47,0001.12,0000.54,0000.27,0000.11,0000.53,-000.00,0000.11,19.1,25.4,03.5,02.4,0667.4,31.1
2021-04-12T14:46:00Z,00000200,00000000,0002.10,0001.64,0000.83,-000.36,0000.10,0000.31,0000.70,0001.20,0000.56,19.1,25.4,03.4,02.3,0667.4,31.2
2021-04-12T14:47:00Z,00000200,00000000,0002.00,0001.30,0001.15,0000.61,0000.20,0000.41,0001.01,0000.55,0000.49,19.1,25.5,03.5,02.4,0667.4,31.2
2021-04-12T14:48:00Z,00000200,00000000,0001.52,0001.44,0000.86,0000.06,0000.43,0000.00,0000.46,0000.85,0000.83,19.2,25.5,03.5,02.4,0667.3,31.2
2021-04-12T14:49:00Z,00000200,00000000,0002.31,0001.52,0000.71,0000.60,0000.20,0000.09,0000.26,0000.01,-000.08,19.2,25.5,03.4,02.3,0667.3,31.2
2021-04-12T14:50:00Z,00000200,00000000,0001.58,0001.89,0000.88,0000.58,0000.20,0000.13,0001.00,0000.93,0000.83,19.2,25.5,03.4,02.3,0667.4,31.2
2021-04-12T14:51:00Z,00000200,00000000,0002.10,0001.46,0001.00,-000.16,0000.19,0000.24,0000.50,0000.64,-000.06,19.2,25.5,03.3,02.3,0667.4,31.2
2021-04-12T14:52:00Z,00000200,00000000,0001.90,0001.38,0000.64,0000.08,0000.15,0000.27,0000.80,0000.57,0000.74,19.2,25.5,03.3,02.2,0667.3,31.2
2021-04-12T14:53:00Z,00000200,00000000,0001.68,0001.36,0001.10,0000.13,0000.17,0000.34,0000.80,0001.04,0000.54,19.2,25.5,03.2,02.2,0667.4,31.2
2021-04-12T14:54:00Z,00000200,00000000,0001.84,0001.54,0001.43,0000.41,0000.32,0000.23,0000.79,0000.88,0000.95,19.2,25.5,03.4,02.3,0667.4,31.2
2021-04-12T14:55:00Z,00000200,00000000,0001.30,0001.39,0001.00,0000.08,0000.36,0000.15,0000.97,0000.62,0000.67,19.2,25.6,03.2,02.2,0667.4,31.2
2021-04-12T14:56:00Z,00000200,00000000,0001.65,0001.65,0001.00,0000.22,0000.31,0000.43,0000.31,0000.63,0000.38,19.2,25.6,03.1,02.1,0667.3,31.2
2021-04-12T14:57:00Z,00000200,40000000,,,,,,,0000.75,0000.71,0000.51,19.3,25.6,03.2,02.2,0667.3,31.1
2021-04-12T14:58:00Z,00000200,60000000,,,,,,,-000.01,-000.29,-000.42,19.1,25.7,03.1,02.1,0666.3,31.2
2021-04-12T14:59:00Z,00000200,20000000,,,,,,,-000.05,-000.07,-000.07,19.1,25.8,03.2,02.1,0666.3,31.2
